Location: Baia Mare
(47.6567°N, 23.5850°E)
Time: 02:25:36
(UTC+03:00)

ISS - Pass Details

Date: 14 September 2018
Orbit: 403 x 409 km, 51.6° (Epoch: 24 September)

Event Time Altitude Azimuth Distance (km) Brightness Sun altitude
Exits shadow 05:16:01 38° 307° (NW) 642 -3.1 -17.8°
Maximum altitude 05:17:07 70° 20° (NNE) 434 -3.6 -17.6°
Drops below altitude 10° 05:20:22 10° 105° (ESE) 1,458 -0.3 -17.1°
Sets 05:22:27 0° 108° (ESE) 2,314 0.8 -16.8°
